Weather History for Springfield, CO

Change the Weather History Date:

Sunday, February 17, 2013

  Actual Average Record
Temperature  
Mean Temperature 46 °F -  
Max Temperature 69 °F 50 °F 71 °F (2002)
Min Temperature 23 °F 21 °F 0 °F (2006)
Degree Days  
Heating Degree Days 19 29  
Month to date heating degree days 463 522  
Since 1 July heating degree days 3393 3698  
Cooling Degree Days 0 0  
Month to date cooling degree days 0 0  
Year to date cooling degree days 0 0  
Moisture  
Dew Point 2 °F    
Average Humidity 24    
Maximum Humidity 42    
Minimum Humidity 5    
Precipitation  
Precipitation 0.00 in 0.01 in 0.03 in (2008)
Month to date precipitation 0.04 0.29  
Year to date precipitation 0.06 0.66  
Sea Level Pressure  
Sea Level Pressure 29.67 in    
Wind  
Wind Speed 14 mph (West)    
Max Wind Speed 25 mph    
Max Gust Speed 31 mph    
T = Trace of Precipitation, MM = Missing Value Source: NWS Daily Summary

Daily Weather History Graph

Daily Weather History Graph

Search for Another Location

Airport:

Trip Planner

Search our weather history database for the weather conditions in past years. The results will help you decide how hot, cold, wet, or windy it might be!

Date:

Astronomy

Feb. 17, 2013 Rise Set
Actual Time 6:36 AM MST 5:32 PM MST
Civil Twilight 6:10 AM MST 5:59 PM MST
Nautical Twilight 5:39 AM MST 6:29 PM MST
Astronomical Twilight 5:09 AM MST 6:59 PM MST
Moon 10:41 AM MST (2/17) 12:20 AM MST (2/17)
Length of Visible Light 11h 49m
Length of Day
10h 55m
Waxing Crescent, 49% of the Moon is Illuminated
Feb 17
Waxing Crescent
Feb 17
First Quarter
Feb 25
Full
Mar 4
Last Quarter
Mar 11
New

Hourly Weather History & Observations

Time (MST) Temp. Windchill Dew Point Humidity Pressure Visibility Wind Dir Wind Speed Gust Speed Precip Events Conditions
12:56 AM 30.9 °F 25.2 °F 8.1 °F 38% 29.91 in - West 5.8 mph - N/A   Unknown
1:56 AM 30.0 °F 22.4 °F 7.0 °F 38% 29.89 in - West 8.1 mph - N/A   Unknown
2:56 AM 27.0 °F 18.7 °F 6.1 °F 41% 29.87 in - West 8.1 mph - N/A   Unknown
3:56 AM 37.0 °F 28.1 °F 6.1 °F 28% 29.82 in - WNW 15.0 mph - N/A   Unknown
4:56 AM 37.0 °F 28.5 °F 7.0 °F 29% 29.84 in - WNW 13.8 mph - N/A   Unknown
5:56 AM 30.9 °F 21.2 °F 6.1 °F 35% 29.88 in - WNW 12.7 mph - N/A   Unknown
6:56 AM 36.0 °F 27.5 °F 7.0 °F 30% 29.86 in - NW 12.7 mph - N/A   Unknown
7:56 AM 44.1 °F 42.5 °F 7.0 °F 22% 29.86 in - WNW 3.5 mph - N/A   Unknown
8:56 AM 52.0 °F - 7.0 °F 16% 29.81 in - NW 18.4 mph 25.3 mph N/A   Unknown
9:56 AM 62.1 °F - 1.0 °F 9% 29.78 in - WSW 11.5 mph 18.4 mph N/A   Unknown
10:56 AM 63.0 °F - 1.0 °F 8% 29.75 in - SW 15.0 mph - N/A   Unknown
11:56 AM 64.0 °F - 1.0 °F 8% 29.70 in - SSW 18.4 mph 26.5 mph N/A   Unknown
12:56 PM 64.9 °F - 1.0 °F 8% 29.63 in - SSW 19.6 mph 25.3 mph N/A   Unknown
1:56 PM 66.9 °F - -2.0 °F 6% 29.57 in - SSW 19.6 mph 24.2 mph N/A   Unknown
2:56 PM 64.9 °F - -4.0 °F 6% 29.55 in - SSW 17.3 mph - N/A   Unknown
3:56 PM 66.9 °F - -7.1 °F 5% 29.47 in - SSW 21.9 mph - N/A   Unknown
4:56 PM 57.9 °F - -2.0 °F 9% 29.48 in - SW 16.1 mph - N/A   Unknown
5:56 PM 55.9 °F - -2.0 °F 9% 29.50 in - SW 15.0 mph - N/A   Unknown
6:56 PM 44.1 °F 40.1 °F -2.0 °F 15% 29.52 in - WSW 6.9 mph - N/A   Unknown
7:56 PM 48.0 °F - -5.1 °F 11% 29.47 in - West 8.1 mph - N/A   Unknown
8:56 PM 44.1 °F 38.1 °F -5.1 °F 13% 29.47 in - WNW 11.5 mph - N/A   Unknown
9:56 PM 45.0 °F 38.2 °F -4.0 °F 13% 29.44 in - WNW 15.0 mph - N/A   Unknown
10:56 PM 39.0 °F 30.6 °F -0.9 °F 19% 29.49 in - NW 15.0 mph - N/A   Unknown
11:56 PM 39.9 °F 30.0 °F 12.0 °F 32% 29.52 in - NNW 21.9 mph 28.8 mph N/A   Unknown